Wind_Speed
19 19 17 16 15 14 15 15 14 13 11 9 8 8 8 8 9 9 9 9 8 7 6 5 3 1 2 6 8 7 6 6 6 6 7 7 8 9 10 10 10 10
19 17 15 14 14 15 15 14 14 13 10 8 8 8 8 8 8 8 9 10 9 8 7 5 4 2 2 5 7 7 6 6 5 6 6 7 7 8 8 9 9 9
18 15 14 12 13 15 15 15 14 12 9 8 9 8 7 7 7 7 8 9 9 8 7 5 4 3 3 4 6 7 6 5 5 5 5 6 6 6 6 7 8 9
16 14 13 11 11 13 14 14 14 11 9 8 8 7 7 7 6 6 7 8 8 7 7 6 5 4 3 3 4 6 6 5 5 5 5 4 4 3 4 5 7 10
15 14 13 11 11 12 13 14 13 10 9 8 7 6 6 5 5 5 6 7 8 7 6 6 6 4 3 3 3 4 5 5 5 5 5 4 2 1 1 3 5 10
15 14 14 13 12 12 12 13 12 10 9 8 6 5 4 3 3 3 4 6 7 7 6 6 6 5 4 3 3 4 4 4 5 5 5 3 2 2 3 3 5 8
15 15 15 14 12 12 11 12 12 10 9 8 6 5 4 2 2 2 3 5 6 6 6 6 7 6 5 4 4 5 5 4 4 5 4 3 3 4 4 4 5 8
15 15 14 13 12 11 12 13 13 10 9 7 6 5 3 1 2 3 4 5 5 5 5 7 8 8 7 6 6 5 5 5 5 5 4 4 3 4 4 3 5 9
15 15 13 12 11 11 13 14 13 11 9 8 6 5 2 1 3 5 5 5 5 4 5 7 8 9 9 8 7 6 6 6 6 6 6 5 4 3 3 2 4 9
15 15 13 11 10 11 14 15 13 11 10 9 7 4 3 3 4 5 5 4 4 3 4 5 6 8 9 10 9 8 7 7 7 8 7 7 5 5 4 3 4 8
16 16 15 12 11 14 16 15 13 12 12 10 7 5 5 5 5 5 4 3 3 2 3 3 4 6 7 8 9 9 8 8 8 8 8 7 7 7 6 5 5 8
17 18 17 14 13 16 16 14 14 14 12 11 9 8 7 7 6 5 4 3 2 2 3 3 4 4 4 5 7 9 10 10 9 9 8 8 7 8 8 6 6 8
18 19 19 16 15 17 16 15 16 15 13 12 12 12 11 10 10 9 7 6 4 3 3 4 5 5 4 3 5 8 10 10 10 10 10 10 9 9 9 9 8 9
19 20 20 19 18 17 17 17 17 16 14 14 14 13 13 12 11 10 9 8 7 6 4 3 4 4 4 3 3 5 7 8 9 10 11 11 10 9 10 11 10 9
17 18 19 18 18 18 20 22 20 17 15 14 14 13 12 11 9 8 7 6 5 6 6 6 4 4 4 3 2 3 3 4 6 8 10 11 9 8 9 11 12 11
16 16 16 16 16 18 21 21 15 12 12 11 9 8 6 4 3 4 5 4 4 4 5 5 4 4 4 4 4 4 4 3 3 5 9 10 9 8 8 9 11 12
14 14 13 15 16 18 19 15 13 14 16 17 17 15 11 10 9 6 5 5 5 5 4 4 3 3 3 3 4 5 6 6 5 5 7 9 9 9 9 8 9 10
12 12 12 13 16 17 16 14 13 13 13 14 14 12 9 8 9 9 7 6 7 7 5 4 3 3 2 2 3 3 5 6 7 6 6 7 8 8 8 8 8 9
8 10 11 13 13 14 14 12 12 11 11 12 11 10 10 9 9 9 9 8 7 7 6 6 5 4 3 3 3 3 4 5 6 7 7 7 8 8 9 9 10 10
8 9 11 12 12 12 11 11 12 11 12 12 11 10 10 9 8 9 9 8 7 7 7 7 7 6 5 5 5 5 5 5 6 7 8 8 9 9 9 10 11 11
10 11 12 12 12 12 12 13 13 13 13 12 11 10 9 8 8 8 8 8 8 7 7 8 8 8 8 8 7 7 7 7 7 8 8 9 9 10 11 11 12 12
12 12 13 13 12 13 14 14 14 14 13 12 11 10 9 8 7 7 7 7 6 7 8 8 9 9 10 10 10 10 10 10 10 10 10 11 12 13 14 14 15 15
13 12 12 11 10 10 12 13 13 12 11 11 11 10 10 9 7 5 5 6 6 7 8 9 10 10 11 12 12 12 13 13 13 13 13 13 14 15 17 17 18 19
14 13 12 11 9 9 9 9 9 8 7 7 7 7 7 7 7 5 5 6 7 8 9 10 11 12 12 13 14 14 15 15 16 16 16 17 17 18 19 20 20 21
13 13 12 11 10 9 7 7 6 5 4 3 2 3 3 2 4 5 6 7 7 8 9 10 11 11 12 13 13 14 15 16 17 17 18 19 20 21 22 22 22 23
11 10 10 9 8 7 6 5 4 3 3 3 3 3 3 2 3 5 7 7 8 9 10 11 12 12 13 14 14 15 15 16 17 17 18 19 20 21 22 23 23 23
Wind_Direction
179 177 168 155 156 162 162 159 153 144 135 127 126 128 129 134 144 151 155 165 175 170 164 172 175 169 204 205 206 205 208 209 206 210 214 217 220 218 217 217 218 220
175 173 158 145 148 154 156 153 144 137 132 130 129 126 126 129 135 143 150 155 160 160 163 172 179 181 181 194 202 206 208 209 209 214 219 225 228 225 221 216 217 216
173 168 155 149 149 152 154 149 141 136 136 135 131 124 124 125 127 135 147 151 151 156 166 176 182 193 191 188 198 206 208 207 211 216 221 226 228 229 223 216 216 209
171 164 160 158 154 156 156 149 142 140 141 140 134 125 118 114 117 134 151 156 157 161 169 178 185 198 207 202 196 199 205 208 207 208 215 221 223 228 225 219 211 198
171 167 166 164 163 164 160 152 145 142 143 141 136 127 113 103 104 125 150 162 170 175 174 178 187 194 208 217 198 188 194 200 195 189 195 203 204 202 206 209 198 192
170 167 163 163 167 167 162 154 147 143 142 138 134 128 115 105 100 113 143 164 177 183 178 178 186 186 189 195 185 178 179 184 179 170 171 170 135 90 95 151 181 184
167 163 157 160 165 165 162 156 149 145 142 138 138 134 124 113 109 124 149 164 173 176 172 175 180 177 172 164 160 164 168 170 166 157 156 146 110 84 85 118 161 171
164 160 155 159 165 165 165 159 153 149 145 145 147 144 141 131 124 140 147 151 155 157 162 172 176 175 170 161 156 163 170 172 165 158 157 145 109 89 82 104 151 163
163 160 159 165 168 168 166 161 156 153 151 152 150 146 147 145 141 139 137 138 139 142 157 169 176 179 177 172 171 175 180 178 171 163 156 145 126 111 90 85 151 163
165 166 169 173 175 172 166 160 157 159 159 155 154 153 148 146 151 143 135 136 138 145 163 173 180 184 183 184 185 187 191 187 177 168 156 146 144 142 121 100 147 163
173 175 177 180 183 173 164 161 161 162 158 152 147 145 141 144 151 147 140 147 156 163 173 179 187 190 191 194 195 196 197 192 182 174 165 156 157 157 143 123 141 160
180 181 182 187 186 175 168 167 166 161 153 147 141 137 135 133 130 127 127 142 167 188 189 186 185 183 187 196 198 198 196 191 186 182 180 178 177 172 161 145 144 158
186 186 186 190 188 180 175 171 165 159 150 143 138 133 128 121 114 110 108 106 107 127 164 183 183 173 164 165 180 191 193 193 192 190 190 195 199 194 181 168 160 161
192 191 191 191 186 183 181 173 165 159 150 143 138 132 127 122 118 115 110 102 92 87 97 131 165 173 162 145 156 182 194 200 204 203 202 205 210 210 201 191 183 178
195 194 193 190 188 189 182 171 165 160 152 145 141 137 132 128 125 123 121 115 105 94 90 96 116 145 159 161 165 176 191 209 218 215 209 208 211 211 206 200 198 198
191 190 188 186 190 194 183 174 179 194 197 197 204 205 194 190 184 146 139 148 149 131 117 115 122 136 148 160 178 188 198 215 231 222 210 207 207 204 201 199 200 206
186 185 183 183 189 195 193 196 214 225 225 231 240 244 244 252 255 223 173 178 187 173 161 159 161 166 164 165 177 191 203 212 220 223 214 210 211 210 210 207 205 210
189 192 193 192 193 197 200 206 211 214 220 227 232 234 233 231 226 208 196 204 201 190 188 192 200 218 218 210 206 201 202 208 212 213 212 214 219 222 224 226 225 224
190 197 196 194 193 193 193 193 197 204 212 213 210 211 212 206 200 202 210 216 209 202 207 214 223 237 242 240 238 229 217 211 210 210 210 212 218 225 230 233 236 239
159 176 181 179 181 184 183 183 186 188 193 196 196 198 202 201 201 209 217 221 220 219 220 226 235 241 243 245 244 241 238 230 223 219 216 216 217 218 221 226 232 237
146 156 159 161 168 174 176 177 179 180 183 186 190 193 198 201 203 207 214 220 226 229 230 235 241 244 247 249 249 249 248 247 246 241 236 233 231 228 227 227 228 231
145 149 149 153 162 169 174 177 179 182 185 185 189 195 198 201 202 205 213 221 229 237 241 246 249 251 253 253 253 255 256 257 258 258 256 255 251 248 246 244 241 240
131 138 142 145 152 161 170 177 180 186 191 191 193 199 201 201 201 207 224 236 245 251 254 258 260 260 261 262 261 261 262 262 262 262 262 262 261 261 260 257 256 255
116 120 123 127 136 147 158 165 170 181 195 195 191 195 204 209 208 219 243 250 251 255 258 259 261 262 264 265 266 267 267 266 265 265 264 264 263 264 265 265 264 264
115 116 118 121 126 131 136 144 152 166 188 201 193 188 201 208 206 226 249 254 254 259 261 262 264 267 268 269 270 271 271 270 269 269 268 267 266 266 266 266 265 264
115 118 122 125 128 131 135 147 161 175 191 209 222 225 235 240 228 239 253 259 262 266 269 271 275 277 278 280 280 279 279 279 278 277 275 274 273 272 271 270 269 267
Height
1528 1529 1528 1527 1528 1530 1533 1534 1536 1538 1539 1540 1542 1543 1544 1545 1546 1547 1548 1549 1550 1551 1552 1553 1553 1554 1554 1554 1555 1557 1558 1559 1560 1561 1562 1562 1563 1564 1565 1566 1566 1567
1527 1528 1527 1527 1528 1530 1532 1534 1536 1537 1539 1540 1541 1542 1543 1544 1546 1547 1548 1549 1549 1550 1551 1552 1553 1553 1553 1554 1555 1556 1557 1558 1559 1560 1561 1561 1562 1563 1564 1565 1565 1566
1526 1526 1526 1527 1528 1529 1532 1534 1535 1537 1539 1540 1541 1542 1543 1544 1545 1546 1547 1548 1549 1550 1551 1552 1553 1553 1553 1554 1554 1555 1556 1558 1559 1559 1560 1561 1562 1563 1563 1564 1565 1565
1524 1524 1525 1527 1528 1530 1532 1533 1535 1537 1539 1540 1541 1542 1543 1544 1544 1545 1546 1548 1548 1549 1550 1551 1552 1553 1553 1553 1554 1555 1556 1557 1558 1559 1560 1560 1561 1562 1563 1563 1564 1565
1522 1523 1524 1526 1528 1530 1532 1533 1535 1537 1539 1540 1541 1542 1543 1543 1544 1545 1546 1547 1547 1548 1549 1550 1552 1552 1553 1553 1554 1555 1556 1557 1558 1558 1559 1560 1561 1562 1562 1563 1563 1564
1521 1522 1524 1526 1528 1530 1532 1534 1536 1537 1539 1540 1541 1542 1542 1543 1544 1544 1545 1546 1547 1548 1549 1550 1551 1552 1552 1553 1553 1555 1555 1556 1557 1558 1559 1560 1561 1561 1562 1562 1563 1564
1521 1522 1523 1526 1528 1530 1532 1534 1536 1537 1539 1540 1541 1542 1542 1543 1544 1544 1544 1545 1546 1547 1548 1549 1550 1551 1552 1552 1553 1554 1555 1556 1557 1558 1559 1560 1561 1561 1562 1562 1563 1564
1520 1522 1523 1526 1528 1530 1532 1534 1536 1537 1539 1540 1541 1542 1542 1543 1543 1543 1544 1545 1546 1547 1548 1549 1550 1550 1551 1552 1553 1554 1555 1556 1557 1558 1559 1560 1560 1561 1562 1562 1563 1564
1520 1522 1524 1526 1528 1529 1531 1533 1535 1537 1539 1540 1541 1541 1542 1542 1542 1543 1544 1545 1546 1547 1548 1548 1549 1550 1551 1551 1552 1553 1554 1555 1557 1558 1559 1559 1560 1561 1562 1563 1563 1564
1519 1521 1523 1525 1527 1528 1530 1532 1535 1537 1538 1540 1540 1541 1541 1541 1542 1543 1544 1545 1546 1547 1547 1548 1549 1550 1550 1551 1552 1553 1554 1555 1556 1558 1559 1560 1560 1561 1562 1563 1563 1564
1518 1520 1522 1524 1526 1528 1530 1532 1534 1536 1537 1538 1539 1540 1540 1541 1542 1543 1544 1545 1546 1546 1547 1548 1548 1549 1550 1550 1551 1552 1553 1555 1556 1557 1558 1560 1560 1561 1562 1563 1564 1565
1517 1519 1521 1524 1526 1528 1530 1532 1533 1535 1536 1537 1538 1539 1540 1541 1542 1543 1544 1545 1546 1546 1547 1548 1548 1549 1549 1550 1550 1551 1552 1554 1555 1556 1558 1559 1560 1561 1562 1563 1564 1565
1517 1519 1521 1523 1525 1527 1530 1532 1533 1534 1535 1536 1538 1539 1540 1541 1541 1542 1543 1544 1545 1546 1547 1547 1548 1548 1549 1549 1550 1551 1552 1553 1554 1556 1557 1558 1560 1561 1562 1563 1564 1565
1517 1519 1520 1522 1524 1527 1530 1531 1533 1534 1535 1536 1538 1539 1540 1541 1542 1543 1544 1545 1545 1546 1547 1547 1548 1549 1549 1550 1550 1551 1551 1552 1554 1555 1556 1558 1559 1561 1562 1563 1564 1565
1517 1519 1520 1522 1525 1527 1529 1530 1531 1533 1535 1536 1538 1539 1540 1541 1542 1543 1544 1545 1546 1546 1547 1547 1548 1549 1549 1550 1550 1551 1551 1552 1553 1554 1556 1557 1559 1560 1561 1563 1564 1565
1517 1519 1520 1522 1525 1527 1528 1529 1530 1533 1535 1537 1537 1539 1540 1541 1542 1544 1544 1545 1546 1546 1546 1547 1548 1548 1549 1549 1550 1550 1551 1552 1553 1554 1555 1556 1558 1560 1561 1562 1563 1564
1517 1519 1521 1522 1524 1526 1527 1529 1530 1532 1535 1536 1536 1538 1538 1539 1541 1543 1544 1545 1546 1546 1546 1546 1547 1548 1548 1549 1549 1550 1551 1552 1553 1553 1554 1556 1557 1559 1560 1561 1562 1563
1518 1519 1521 1522 1524 1526 1527 1529 1530 1532 1533 1535 1536 1537 1537 1538 1540 1542 1543 1544 1545 1545 1545 1546 1547 1548 1548 1549 1549 1550 1551 1552 1552 1553 1554 1555 1557 1558 1559 1560 1561 1562
1518 1519 1521 1522 1524 1525 1527 1529 1530 1532 1533 1534 1535 1536 1537 1538 1539 1541 1542 1543 1543 1544 1545 1545 1546 1547 1548 1549 1549 1550 1551 1552 1552 1553 1554 1555 1556 1557 1558 1559 1560 1561
1518 1520 1521 1522 1524 1526 1527 1529 1530 1531 1532 1533 1534 1535 1536 1537 1539 1540 1541 1542 1542 1543 1544 1545 1546 1546 1547 1548 1549 1550 1551 1551 1552 1553 1554 1554 1555 1556 1557 1558 1559 1559
1520 1521 1522 1523 1525 1526 1528 1529 1530 1531 1532 1533 1534 1535 1536 1537 1538 1539 1540 1541 1542 1542 1543 1544 1545 1546 1546 1547 1548 1549 1550 1551 1552 1552 1553 1554 1554 1555 1555 1556 1557 1557
1522 1522 1523 1524 1525 1527 1528 1529 1531 1531 1532 1533 1534 1535 1536 1538 1538 1539 1540 1540 1541 1542 1543 1543 1544 1544 1545 1546 1547 1548 1548 1549 1550 1551 1552 1552 1553 1553 1554 1554 1555 1556
1523 1524 1525 1526 1527 1528 1529 1530 1531 1532 1532 1533 1534 1535 1536 1538 1538 1539 1539 1540 1540 1541 1541 1542 1542 1543 1544 1544 1545 1546 1547 1548 1548 1549 1550 1550 1551 1551 1552 1552 1553 1554
1525 1526 1527 1527 1528 1529 1529 1530 1531 1532 1532 1533 1534 1535 1536 1537 1538 1539 1539 1539 1539 1540 1540 1541 1541 1541 1542 1543 1543 1544 1545 1546 1546 1547 1547 1548 1548 1549 1549 1549 1550 1551
1527 1528 1528 1529 1529 1530 1530 1531 1532 1532 1533 1533 1534 1535 1536 1537 1538 1539 1539 1538 1539 1539 1539 1539 1540 1540 1540 1541 1541 1542 1543 1543 1544 1544 1545 1545 1546 1546 1546 1546 1547 1548
1528 1528 1529 1529 1529 1530 1530 1531 1532 1532 1533 1534 1534 1535 1536 1536 1537 1538 1538 1538 1538 1538 1538 1538 1539 1539 1539 1539 1540 1540 1540 1541 1541 1541 1542 1542 1543 1543 1543 1543 1543 1544